This is the latest recevied weather packets stored in our database for station/object AA8FM-13. If no packets are shown the sender has not sent any weather packets the latest 10 day(s).
| Time | Temp. | Humidity | Pressure | Rain* | Wind** | Luminosity | Snow |
|---|---|---|---|---|---|---|---|
| 1777587140 | 12.22° C | 64% | 1011.1 hPa | 0 mm | - | 152 W/m² | - |
| 1777586835 | 12.78° C | 64% | 1010.9 hPa | 0 mm | - | 66 W/m² | - |
| 1777586530 | 12.22° C | 65% | 1011 hPa | 0 mm | - | 158 W/m² | - |
| 1777586226 | 11.67° C | 66% | 1011 hPa | 0 mm | - | 147 W/m² | - |
| 1777585923 | 11.67° C | 65% | 1011 hPa | 0 mm | - | 91 W/m² | - |
| 1777585618 | 12.22° C | 64% | 1010.9 hPa | 0 mm | - | 282 W/m² | - |
| 1777585314 | 11.67° C | 66% | 1010.9 hPa | 0 mm | - | 156 W/m² | - |
| 1777585008 | 11.67° C | 65% | 1011 hPa | 0 mm | - | 90 W/m² | - |
| 1777584706 | 11.67° C | 65% | 1011 hPa | 0 mm | - | 86 W/m² | - |
| 1777584403 | 11.67° C | 65% | 1011.1 hPa | 0 mm | - | 139 W/m² | - |
| 1777584099 | 11.67° C | 64% | 1010.9 hPa | 0 mm | - | 142 W/m² | - |
| 1777583798 | 11.67° C | 64% | 1010.7 hPa | 0 mm | - | 128 W/m² | - |
| 1777583494 | 11.67° C | 64% | 1010.7 hPa | 0 mm | - | 146 W/m² | - |
| 1777583193 | 11.67° C | 67% | 1010.6 hPa | 0 mm | - | 119 W/m² | - |
| 1777582889 | 11.11° C | 69% | 1010.5 hPa | 0 mm | - | 153 W/m² | - |
| 1777582587 | 11.11° C | 68% | 1010.8 hPa | 0 mm | - | 66 W/m² | - |
| 1777582281 | 11.67° C | 67% | 1010.8 hPa | 0 mm | - | 92 W/m² | - |
| 1777581979 | 11.67° C | 65% | 1010.5 hPa | 0 mm | - | 124 W/m² | - |
| 1777581674 | 12.22° C | 67% | 1010.5 hPa | 0 mm | - | 128 W/m² | - |
| 1777581369 | 12.22° C | 62% | 1010.6 hPa | 0 mm | - | 210 W/m² | - |
| 1777581063 | 12.78° C | 64% | 1010.6 hPa | 0 mm | - | 123 W/m² | - |
| 1777580762 | 13.33° C | 62% | 1010.4 hPa | 0 mm | - | 483 W/m² | - |
| 1777580459 | 13.33° C | 65% | 1010.3 hPa | 0 mm | - | 532 W/m² | - |
| 1777580154 | 12.78° C | 66% | 1010.4 hPa | 0 mm | - | 556 W/m² | - |
| 1777579852 | 12.78° C | 66% | 1010.6 hPa | 0 mm | - | 609 W/m² | - |
* Rain latest hour (hover to see other rain measurements)
** Current wind speed in m/s (hover to see current wind gust speed)